GW3251 Weather Reports


Display with metric or nautical units.
time (UTC)temp
F
wind
direction
speed
MPH
gust
MPH
rain 1hr
in
rain 24hr
in
rain mn
in
humidity
%
barometer
mb
20260509105038 73 0 0.0 0.0 0.00 0.00 0.00 93 1010.6
20260509104551 73 0 0.0 0.0 0.00 0.00 0.00 93 1010.5
20260509104037 73 0 0.0 0.0 0.00 0.00 0.00 93 1010.7
20260509103537 73 0 0.0 0.0 0.00 0.00 0.00 93 1010.8
20260509103059 73 0 0.0 0.0 0.00 0.00 0.00 93 1010.6
20260509102538 73 0 0.0 0.0 0.00 0.00 0.00 93 1010.8
20260509102039 73 0 0.0 0.0 0.00 0.00 0.00 93 1010.8
20260509101559 73 0 0.0 0.0 0.00 0.00 0.00 93 1010.8
20260509101039 73 0 0.0 0.0 0.00 0.00 0.00 93 1010.6
20260509100538 73 0 0.0 0.0 0.00 0.00 0.00 93 1010.4
20260509100047 73 0 0.0 0.0 0.00 0.00 0.00 93 1010.3
20260509095539 73 0 0.0 0.0 0.00 0.00 0.00 93 1010.0
20260509095038 73 0 0.0 0.0 0.00 0.00 0.00 93 1009.9
20260509094559 72 0 0.0 0.0 0.00 0.00 0.00 93 1009.9
20260509094039 73 0 0.0 0.0 0.00 0.00 0.00 93 1010.0
20260509093537 73 0 0.0 0.0 0.00 0.00 0.00 93 1010.0
20260509093050 73 0 0.0 0.0 0.00 0.00 0.00 93 1010.1
20260509092536 73 0 0.0 0.0 0.00 0.00 0.00 93 1010.1
20260509092036 73 0 0.0 0.0 0.00 0.00 0.00 93 1010.0
20260509091545 72 0 0.0 0.0 0.00 0.00 0.00 93 1009.9
20260509091039 72 0 0.0 0.0 0.00 0.00 0.00 93 1009.9
20260509090540 72 0 0.0 0.0 0.00 0.00 0.00 93 1010.0
20260509090058 73 0 0.0 0.0 0.00 0.00 0.00 93 1010.2
20260509085537 73 0 0.0 0.0 0.00 0.00 0.00 93 1010.2
20260509085036 73 0 0.0 0.0 0.00 0.00 0.00 93 1010.2
20260509084548 73 0 0.0 0.0 0.00 0.00 0.00 93 1010.4
20260509084035 73 0 0.0 0.0 0.00 0.00 0.00 93 1010.7
20260509083536 73 0 0.0 0.0 0.00 0.00 0.00 93 1010.7
20260509083056 73 0 0.0 0.0 0.00 0.00 0.00 93 1010.6
20260509082536 73 0 0.0 0.0 0.00 0.00 0.00 93 1010.6
20260509082037 73 0 0.0 0.0 0.00 0.00 0.00 93 1010.4
20260509081548 73 0 0.0 0.0 0.00 0.00 0.00 93 1010.3
20260509081037 73 0 0.0 0.0 0.00 0.00 0.00 93 1010.3
20260509080536 73 0 0.0 0.0 0.00 0.00 0.00 93 1010.4
20260509080053 73 0 0.0 0.0 0.00 0.00 0.00 93 1010.2
20260509075536 73 0 0.0 0.0 0.00 0.00 0.00 93 1010.3
20260509075036 73 0 0.0 0.0 0.00 0.00 0.00 93 1010.4
20260509074551 73 0 0.0 0.0 0.00 0.00 0.00 93 1010.3
20260509074036 73 0 0.0 0.0 0.00 0.00 0.00 93 1010.5
20260509073539 73 0 0.0 0.0 0.00 0.00 0.00 93 1010.6
20260509073050 73 0 0.0 0.0 0.00 0.00 0.00 93 1010.9
20260509072537 73 0 0.0 0.0 0.00 0.00 0.00 93 1010.9
20260509072036 73 0 0.0 0.0 0.00 0.00 0.00 93 1010.7
20260509071556 73 0 0.0 0.0 0.00 0.00 0.00 93 1010.8
20260509071037 73 0 0.0 0.0 0.00 0.00 0.00 92 1010.6
20260509070537 73 0 0.0 0.0 0.00 0.00 0.00 92 1010.7
20260509070046 73 0 0.0 0.0 0.00 0.00 0.00 92 1010.7
20260509065536 73 0 0.0 0.0 0.00 0.00 0.00 92 1010.6
20260509065036 73 0 0.0 0.0 0.00 0.00 0.00 92 1010.6
20260509064548 73 0 0.0 3.0 0.00 0.00 0.00 92 1010.5
20260509064041 73 0 0.0 3.0 0.00 0.00 0.00 92 1010.3
20260509063538 73 0 0.0 6.0 0.00 0.00 0.00 92 1010.4
20260509063049 73 0 0.0 8.0 0.00 0.00 0.00 92 1010.2
20260509062539 73 0 0.0 8.0 0.00 0.00 0.00 92 1010.2
20260509062038 73 0 0.0 5.0 0.00 0.00 0.00 92 1010.4
20260509061552 73 0 0.0 1.0 0.00 0.00 0.00 92 1010.4
20260509061038 73 0 0.0 6.0 0.00 0.00 0.00 92 1010.6
20260509060538 73 0 0.0 6.0 0.00 0.00 0.00 92 1010.6
20260509060106 73 0 0.0 1.0 0.00 0.00 0.00 92 1010.5
20260509055538 73 0 0.0 8.0 0.00 0.00 0.00 92 1010.7
20260509055037 73 0 0.0 8.0 0.00 0.00 0.00 92 1010.6
20260509054548 73 0 0.0 8.0 0.00 0.00 0.00 92 1010.5
20260509054045 73 0 0.0 8.0 0.00 0.00 0.00 92 1010.3
20260509053539 73 165 0.0 7.0 0.00 0.00 0.00 92 1010.3
20260509053110 73 0 0.0 7.0 0.00 0.00 0.00 92 1010.2
20260509052542 73 0 0.0 0.0 0.00 0.00 0.00 92 1010.2
20260509052040 73 0 0.0 5.0 0.00 0.00 0.00 92 1010.2
20260509051551 73 0 0.0 6.0 0.00 0.00 0.00 92 1010.4
20260509051038 73 0 0.0 6.0 0.00 0.00 0.00 92 1010.1
20260509050538 73 0 0.0 8.0 0.00 0.00 0.00 92 1010.2
20260509050057 73 143 0.0 8.0 0.00 0.00 0.00 91 1010.2
20260509045538 73 146 1.0 9.0 0.00 0.00 0.00 91 1010.2
20260509045038 73 0 0.0 9.0 0.00 0.00 0.00 91 1010.2
20260509044616 73 0 1.0 9.0 0.00 0.00 0.00 91 1010.2
20260509044037 73 160 1.0 8.0 0.00 0.00 0.00 91 1010.2
20260509043538 73 0 0.0 9.0 0.00 0.00 0.00 91 1010.2
20260509043108 73 0 2.0 9.0 0.00 0.00 0.00 91 1010.1
20260509042537 73 0 0.0 8.0 0.00 0.00 0.00 91 1010.1
20260509042039 73 0 0.0 9.0 0.00 0.00 0.00 91 1010.0
20260509041551 73 0 0.0 9.0 0.00 0.00 0.00 91 1010.0
20260509041038 73 0 0.0 9.0 0.00 0.00 0.00 91 1009.9
20260509040538 73 0 0.0 10.0 0.00 0.00 0.00 91 1009.9
20260509040047 73 0 0.0 10.0 0.00 0.00 0.00 90 1009.8
20260509035538 73 0 2.0 11.0 0.00 0.00 0.00 90 1009.9
20260509035038 74 0 3.0 11.0 0.00 0.00 0.00 90 1010.2
20260509034550 74 0 1.0 11.0 0.00 0.00 0.00 90 1010.1
20260509034038 74 0 0.0 9.0 0.00 0.00 0.00 90 1010.1
20260509033540 74 176 0.0 6.0 0.00 0.00 0.00 90 1010.1
20260509033046 74 0 0.0 8.0 0.00 0.00 0.00 90 1010.1
20260509032537 74 157 1.0 9.0 0.00 0.00 0.00 90 1010.1
20260509032037 74 169 0.0 9.0 0.00 0.00 0.00 90 1010.0
20260509031559 74 0 0.0 5.0 0.00 0.00 0.00 90 1010.0
20260509031037 74 0 0.0 4.0 0.00 0.00 0.00 90 1009.8
20260509030537 74 0 0.0 4.0 0.00 0.00 0.00 90 1009.7
20260509030110 74 0 0.0 0.0 0.00 0.00 0.00 90 1009.7
20260509025536 74 0 0.0 3.0 0.00 0.00 0.00 90 1009.8
20260509025040 74 0 0.0 3.0 0.00 0.00 0.00 90 1009.7
20260509024550 74 0 0.0 1.0 0.00 0.00 0.00 90 1009.7
20260509024037 74 0 0.0 0.0 0.00 0.00 0.00 90 1009.6
20260509023538 74 0 0.0 0.0 0.00 0.00 0.00 90 1009.7
20260509023056 74 0 0.0 0.0 0.00 0.00 0.00 90 1009.6
20260509022536 74 0 0.0 0.0 0.00 0.00 0.00 90 1009.5
20260509022037 74 0 0.0 0.0 0.00 0.00 0.00 90 1009.5
20260509021550 74 0 0.0 0.0 0.00 0.00 0.00 90 1009.6
20260509021040 74 0 0.0 0.0 0.00 0.00 0.00 90 1009.6
20260509020537 74 0 0.0 0.0 0.00 0.00 0.00 90 1009.5
20260509020055 73 0 0.0 0.0 0.00 0.00 0.00 90 1009.5
20260509015537 74 0 0.0 0.0 0.00 0.00 0.00 90 1009.5
20260509015037 74 0 0.0 0.0 0.00 0.00 0.00 90 1009.3
20260509014555 74 0 0.0 0.0 0.00 0.00 0.00 90 1009.4
20260509014037 74 0 0.0 0.0 0.00 0.00 0.00 90 1009.2
20260509013536 74 0 0.0 0.0 0.00 0.00 0.00 89 1009.4
20260509013059 74 0 0.0 0.0 0.00 0.00 0.00 89 1009.5
20260509012537 74 0 0.0 0.0 0.00 0.00 0.00 89 1009.4
20260509012036 74 0 0.0 0.0 0.00 0.00 0.00 89 1009.3
20260509011554 74 0 0.0 0.0 0.00 0.00 0.00 88 1009.2
20260509011036 75 0 0.0 0.0 0.00 0.00 0.00 88 1009.1
20260509010537 75 0 0.0 0.0 0.00 0.00 0.00 88 1009.1
20260509010046 75 0 0.0 0.0 0.00 0.00 0.00 87 1009.1
20260509005537 75 0 0.0 9.0 0.00 0.00 0.00 87 1008.9
20260509005037 76 0 0.0 9.0 0.00 0.00 0.00 87 1008.9
20260509004608 76 0 0.0 1.0 0.00 0.00 0.00 87 1008.9
20260509004037 76 0 0.0 3.0 0.00 0.00 0.00 87 1008.8
20260509003537 76 0 0.0 3.0 0.00 0.00 0.00 87 1009.0
20260509003053 76 0 0.0 1.0 0.00 0.00 0.00 87 1008.9
20260509002537 76 0 0.0 2.0 0.00 0.00 0.00 86 1009.0
20260509002036 76 0 0.0 9.0 0.00 0.00 0.00 86 1009.0
20260509001545 76 0 0.0 9.0 0.00 0.00 0.00 86 1009.0
20260509001038 77 122 0.0 7.0 0.00 0.00 0.00 86 1009.1
20260509000537 77 0 0.0 6.0 0.00 0.00 0.00 85 1009.0
20260509000051 77 0 0.0 6.0 0.00 0.00 0.00 86 1009.0
20260508235536 77 0 0.0 6.0 0.00 0.00 0.00 85 1009.0
20260508235037 77 0 0.0 8.0 0.00 0.00 0.00 84 1008.9
20260508234548 78 0 0.0 8.0 0.00 0.00 0.00 84 1008.9
20260508234037 78 0 0.0 9.0 0.00 0.00 0.00 84 1008.9
20260508233537 78 0 2.0 9.0 0.00 0.00 0.00 84 1008.8
20260508233048 78 0 0.0 8.0 0.00 0.00 0.00 84 1008.7
20260508232539 78 0 0.0 8.0 0.00 0.00 0.00 83 1008.9
20260508232036 79 0 0.0 5.0 0.00 0.00 0.00 83 1009.0
20260508231547 79 0 0.0 7.0 0.00 0.00 0.00 82 1008.8
20260508231036 79 0 1.0 9.0 0.00 0.00 0.00 83 1008.9
20260508230536 79 0 1.0 9.0 0.00 0.00 0.00 84 1008.8
20260508230045 78 0 0.0 0.0 0.00 0.00 0.00 85 1008.9
20260508225536 77 0 0.0 1.0 0.00 0.00 0.00 86 1009.3
20260508225039 77 0 0.0 1.0 0.00 0.00 0.00 85 1009.5
20260508224631 77 0 0.0 6.0 0.00 0.00 0.00 84 1009.4
20260508224036 78 0 0.0 6.0 0.00 0.00 0.00 84 1009.3
20260508223536 78 150 0.0 5.0 0.00 0.00 0.00 84 1009.3
20260508223054 78 0 0.0 5.0 0.00 0.00 0.00 83 1009.4
20260508222536 78 161 0.0 1.0 0.00 0.00 0.00 82 1009.4
20260508222037 79 0 0.0 6.0 0.00 0.00 0.00 82 1009.3
20260508221548 79 0 0.0 6.0 0.00 0.00 0.00 80 1009.4
20260508221037 80 0 0.0 1.0 0.00 0.00 0.00 82 1009.2
20260508220536 79 0 0.0 0.0 0.00 0.00 0.00 82 1009.2
20260508220052 79 0 0.0 1.0 0.00 0.00 0.00 81 1009.3
20260508215536 79 0 0.0 1.0 0.00 0.00 0.00 81 1009.3
20260508215036 79 0 0.0 3.0 0.00 0.00 0.00 80 1009.5
20260508214545 80 0 0.0 3.0 0.00 0.00 0.00 80 1009.5
20260508214037 80 0 0.0 3.0 0.00 0.00 0.00 80 1009.6
20260508213536 80 0 0.0 0.0 0.00 0.00 0.00 81 1009.5
20260508213049 79 0 0.0 5.0 0.00 0.00 0.00 81 1009.6
20260508212537 79 0 0.0 6.0 0.00 0.00 0.00 80 1009.6
20260508212038 79 0 0.0 6.0 0.00 0.00 0.00 78 1009.5
20260508211551 80 146 0.0 5.0 0.00 0.00 0.00 78 1009.6
20260508211037 80 0 0.0 0.0 0.00 0.00 0.00 78 1009.7
20260508210537 81 0 0.0 0.0 0.00 0.00 0.00 78 1009.9
20260508210049 80 0 0.0 0.0 0.00 0.00 0.00 77 1009.8
20260508205541 80 0 0.0 0.0 0.00 0.00 0.00 80 1009.9
20260508205038 79 0 0.0 4.0 0.00 0.00 0.00 80 1010.1
20260508204548 79 0 0.0 4.0 0.00 0.00 0.00 81 1010.1
20260508204036 79 0 0.0 0.0 0.00 0.00 0.00 80 1010.1
20260508203536 79 0 0.0 2.0 0.00 0.00 0.00 78 1010.2
20260508203046 80 0 0.0 2.0 0.00 0.00 0.00 77 1010.2
20260508202537 80 0 0.0 2.0 0.00 0.00 0.00 80 1010.2
20260508202037 79 0 0.0 2.0 0.00 0.00 0.00 79 1010.2
20260508201550 79 0 0.0 1.0 0.00 0.00 0.00 80 1010.2
20260508201037 79 0 0.0 1.0 0.00 0.00 0.00 78 1010.3
20260508200537 80 0 0.0 0.0 0.00 0.00 0.00 78 1010.4
20260508200048 80 0 0.0 0.0 0.00 0.00 0.00 79 1010.5
20260508195538 79 0 0.0 7.0 0.00 0.00 0.00 79 1010.6
20260508195037 79 0 0.0 7.0 0.00 0.00 0.00 78 1010.6
20260508194544 79 0 0.0 6.0 0.00 0.00 0.00 79 1010.6
20260508194036 79 0 0.0 0.0 0.00 0.00 0.00 80 1010.6
20260508193536 79 0 0.0 0.0 0.00 0.00 0.00 79 1010.7
20260508193046 78 0 0.0 3.0 0.00 0.00 0.00 80 1010.7
20260508192539 79 0 0.0 4.0 0.00 0.00 0.00 77 1010.8
20260508192037 80 0 0.0 4.0 0.00 0.00 0.00 77 1010.8
20260508191551 80 0 0.0 0.0 0.00 0.00 0.00 76 1010.8
20260508191037 79 0 0.0 0.0 0.00 0.00 0.00 80 1011.0
20260508190536 79 0 0.0 0.0 0.00 0.00 0.00 79 1011.0
20260508190049 78 0 0.0 3.0 0.00 0.00 0.00 80 1011.0
20260508185537 78 0 0.0 4.0 0.00 0.00 0.00 77 1011.0
20260508185037 80 0 0.0 4.0 0.00 0.00 0.00 76 1011.3
20260508184552 79 0 0.0 4.0 0.00 0.00 0.00 78 1011.3
20260508184036 77 0 0.0 4.0 0.00 0.00 0.00 81 1011.5
20260508183536 77 0 0.0 4.0 0.00 0.00 0.00 79 1011.6
20260508183048 77 61 0.0 0.0 0.00 0.00 0.00 81 1011.7
20260508182538 76 0 0.0 5.0 0.00 0.00 0.00 81 1011.8
20260508182036 75 0 1.0 5.0 0.00 0.00 0.00 81 1011.9
20260508181548 75 0 0.0 0.0 0.00 0.00 0.00 81 1012.0
20260508181037 75 0 0.0 0.0 0.00 0.00 0.00 80 1012.0
20260508180537 75 0 0.0 2.0 0.00 0.00 0.00 82 1012.2
20260508180047 74 0 0.0 2.0 0.00 0.00 0.00 82 1012.1
20260508175536 73 0 0.0 0.0 0.00 0.00 0.00 83 1012.3
20260508175038 73 0 0.0 0.0 0.00 0.00 0.00 84 1012.4
20260508174555 72 0 0.0 0.0 0.00 0.00 0.00 85 1012.3
20260508174037 72 0 0.0 0.0 0.00 0.00 0.00 84 1012.4
20260508173536 72 0 0.0 0.0 0.00 0.00 0.00 85 1012.4
20260508173054 72 0 0.0 0.0 0.00 0.00 0.00 84 1012.4
20260508172539 72 0 0.0 0.0 0.00 0.00 0.00 84 1012.5
20260508172037 72 0 0.0 0.0 0.00 0.00 0.00 85 1012.5
20260508171548 71 0 0.0 0.0 0.00 0.00 0.00 84 1012.7
20260508171036 71 0 0.0 0.0 0.00 0.00 0.00 85 1012.8
20260508170536 71 0 0.0 0.0 0.00 0.00 0.00 86 1012.8
20260508170047 71 0 0.0 0.0 0.00 0.00 0.00 85 1012.7
20260508165536 71 0 0.0 0.0 0.00 0.00 0.00 86 1012.8
20260508165038 71 0 0.0 3.0 0.00 0.00 0.00 85 1012.8
20260508164552 71 0 0.0 5.0 0.00 0.00 0.00 85 1012.8
20260508164037 70 0 0.0 5.0 0.00 0.00 0.00 85 1012.8
20260508163536 70 0 1.0 8.0 0.00 0.00 0.00 85 1012.8
20260508163045 70 0 0.0 8.0 0.00 0.00 0.00 84 1013.0
20260508162536 70 0 0.0 5.0 0.00 0.00 0.00 85 1012.8
20260508162037 70 0 0.0 7.0 0.00 0.00 0.00 86 1012.6
20260508161555 70 0 1.0 7.0 0.00 0.00 0.00 86 1012.8
20260508161037 69 0 0.0 0.0 0.00 0.00 0.00 86 1012.9
20260508160540 69 0 0.0 2.0 0.00 0.00 0.00 86 1013.2
20260508160046 68 0 0.0 4.0 0.00 0.00 0.00 86 1013.2
20260508155537 68 0 0.0 4.0 0.00 0.00 0.00 87 1013.4
20260508155037 68 0 0.0 2.0 0.00 0.00 0.00 86 1013.3
20260508154606 68 0 0.0 4.0 0.00 0.00 0.00 87 1013.5
20260508154036 67 0 0.0 4.0 0.00 0.00 0.00 87 1013.3
20260508153537 67 0 0.0 3.0 0.00 0.00 0.00 86 1013.4
20260508153047 68 0 0.0 3.0 0.00 0.00 0.00 87 1013.5
20260508152537 67 0 0.0 3.0 0.00 0.00 0.00 87 1013.6
20260508152036 68 87 0.0 3.0 0.00 0.00 0.00 87 1013.7
20260508151553 67 0 0.0 8.0 0.00 0.00 0.00 86 1013.7
20260508151040 67 0 1.0 8.0 0.00 0.00 0.00 87 1013.7
20260508150537 67 0 0.0 7.0 0.00 0.00 0.00 87 1013.8
20260508145540 66 0 0.0 8.0 0.00 0.00 0.00 89 1014.0
20260508145036 66 0 0.0 6.0 0.00 0.00 0.00 89 1014.0
20260508144549 65 0 0.0 6.0 0.00 0.00 0.00 89 1014.0
20260508144039 65 0 0.0 6.0 0.00 0.00 0.00 88 1014.0
20260508143537 65 0 0.0 6.0 0.00 0.00 0.00 89 1013.9
20260508143105 65 0 0.0 1.0 0.00 0.00 0.00 89 1013.7
20260508142536 65 0 0.0 5.0 0.00 0.00 0.00 90 1013.9
20260508142038 64 0 0.0 5.0 0.00 0.00 0.00 90 1013.7
20260508141545 64 0 0.0 4.0 0.00 0.00 0.00 90 1013.7
20260508141037 64 0 0.0 9.0 0.00 0.00 0.00 91 1013.8
20260508140539 64 0 0.0 9.0 0.00 0.00 0.00 91 1014.0
20260508140059 63 0 0.0 9.0 0.00 0.00 0.00 91 1013.9
20260508135539 63 0 0.0 4.0 0.00 0.00 0.00 91 1013.9
20260508135038 63 0 0.0 7.0 0.00 0.00 0.00 91 1013.8
20260508134548 63 0 0.0 7.0 0.00 0.00 0.00 91 1013.9
20260508134037 63 0 0.0 0.0 0.00 0.00 0.00 91 1013.8
20260508133537 63 0 0.0 0.0 0.00 0.00 0.00 90 1014.0
20260508133044 63 0 0.0 7.0 0.00 0.00 0.00 90 1014.1
20260508132537 63 0 0.0 7.0 0.00 0.00 0.00 90 1014.0
20260508132038 63 0 0.0 3.0 0.00 0.00 0.00 90 1013.9
20260508131546 63 0 0.0 4.0 0.00 0.00 0.00 90 1014.0
20260508131038 63 0 0.0 6.0 0.00 0.00 0.00 90 1014.0
20260508130536 63 0 0.0 6.0 0.00 0.00 0.00 90 1014.1
20260508130047 62 0 0.0 6.0 0.00 0.00 0.00 89 1014.0
20260508125538 62 0 0.0 5.0 0.00 0.00 0.00 89 1013.9
20260508125037 62 0 0.0 5.0 0.00 0.00 0.00 89 1014.0
20260508124548 62 0 0.0 0.0 0.00 0.00 0.00 89 1014.1
20260508124037 62 0 0.0 4.0 0.00 0.00 0.00 89 1014.2
20260508123537 62 0 0.0 4.0 0.00 0.00 0.00 88 1014.1
20260508123047 63 0 0.0 10.0 0.00 0.00 0.00 88 1014.2
20260508122537 63 0 0.0 10.0 0.00 0.00 0.00 88 1014.0
20260508122037 63 0 0.0 10.0 0.00 0.00 0.00 87 1014.1
20260508121552 63 0 2.0 10.0 0.00 0.00 0.00 87 1013.8
20260508121037 63 42 0.0 6.0 0.00 0.00 0.00 87 1013.8
20260508120536 63 0 0.0 6.0 0.00 0.00 0.00 86 1013.8
20260508120049 63 0 0.0 7.0 0.00 0.00 0.00 86 1014.1
20260508115538 63 0 0.0 7.0 0.00 0.00 0.00 86 1014.1
20260508115037 63 0 0.0 5.0 0.00 0.00 0.00 86 1014.1
20260508114549 63 0 0.0 5.0 0.00 0.00 0.00 85 1014.3
20260508114037 63 30 0.0 5.0 0.00 0.00 0.00 85 1014.1
20260508113539 63 0 0.0 5.0 0.00 0.00 0.00 85 1014.0
20260508113049 63 0 0.0 5.0 0.00 0.00 0.00 85 1013.9
20260508112536 63 0 0.0 0.0 0.00 0.00 0.00 85 1014.0
20260508112040 63 0 0.0 0.0 0.00 0.00 0.00 85 1013.7
20260508111601 63 0 0.0 0.0 0.00 0.00 0.00 85 1013.5
20260508111037 63 0 0.0 0.0 0.00 0.00 0.00 85 1013.4
20260508110537 63 0 0.0 0.0 0.00 0.00 0.00 85 1013.3
20260508110049 63 0 0.0 0.0 0.00 0.00 0.00 85 1013.2
20260508105537 63 0 0.0 4.0 0.00 0.00 0.00 85 1012.9